Weather in Palestine

United States     31°45′42″N   95°37′52″W
temp.,
°C
wind,
m/s
gust,
m/s
humid.,
%
clouds,
%
prec.,
mm/h
press.,
hPa
HPBL,
m
25 may, wed
wed2501:00+19s41399100 5.9 1006485
04:00+16s2297100 21.9 1009130
07:00+15wsw259796 21.9 1009180
10:00+20w687754 0.0 1010854
13:00+24w79565 0.1 10111585
16:00+23wnw5855100 0.0 10111525
19:00+21wnw69580 0.0 1012998
22:00+15wnw127363 0.0 101311
26 may, thu
thu2601:00+14ssw34735 0.0 101354
04:00+14sw3472100 0.0 101267
07:00+13w357315 0.0 101499
10:00+22w36535 0.0 1014516
13:00+28w610380 0.0 10141476
16:00+30wnw610350 0.0 10122268
19:00+26n37590 0.0 1011181
22:00+19ne33720 0.0 101447
27 may, fri
fri2701:00+18sse12700 0.0 101411
04:00+16nne11750 0.0 101511
07:00+17n11740 0.0 101611
10:00+25wnw12530 0.0 1016321
13:00+31wsw11370 0.0 1015927
16:00+33ssw13370 0.0 10131750
19:00+31se12580 0.0 101225
22:00+23e49670 0.0 1012147
28 may, sat
sat2801:00+22se513600 0.0 1012303
04:00+21sse310720 0.0 1011218
07:00+20sse311940 0.0 1012279
10:00+27ssw59610 0.0 1013763
13:00+33ssw68390 0.0 10111343
16:00+35ssw68310 0.0 10081847
19:00+32ssw36460 0.0 1007115
22:00+28s615350 0.0 1008526
29 may, sun
sun2901:00+24s616510 0.0 1009520
04:00+21s516811 0.0 1009526
07:00+20s515920 0.0 1009495
10:00+28ssw712540 0.0 1010831
13:00+34ssw710310 0.0 10091603
16:00+36s79250 0.0 10072430
19:00+32sse611350 0.0 1007585
22:00+26sse815630 0.0 1010542